| time (UTC) | temp F | wind direction | speed MPH | gust MPH | rain 1hr in | rain 24hr in | rain mn in | humidity % | barometer mb |
| 20260504050014 | 56 | 247 | 2.0 | 4.0 | 0.02 | 0.35 | 0.13 | 98 | 1011.2 |
| 20260504045943 | 56 | 247 | 2.0 | 4.0 | 0.02 | 0.35 | 0.13 | 98 | 1011.3 |
| 20260504045851 | 56 | 245 | 1.0 | 4.0 | 0.02 | 0.36 | 0.13 | 98 | 1011.4 |
| 20260504045717 | 56 | 245 | 2.0 | 4.0 | 0.02 | 0.36 | 0.13 | 98 | 1011.3 |
| 20260504045532 | 56 | 259 | 1.0 | 4.0 | 0.02 | 0.36 | 0.13 | 98 | 1011.2 |
| 20260504045150 | 56 | 209 | 0.0 | 2.0 | 0.02 | 0.36 | 0.13 | 98 | 1011.2 |
| 20260504044953 | 56 | 211 | 0.0 | 2.0 | 0.02 | 0.35 | 0.12 | 98 | 1011.1 |
| 20260504044703 | 56 | 211 | 0.0 | 2.0 | 0.02 | 0.35 | 0.12 | 98 | 1011.2 |
| 20260504044613 | 56 | 211 | 0.0 | 2.0 | 0.02 | 0.35 | 0.12 | 98 | 1011.2 |
| 20260504044339 | 56 | 215 | 0.0 | 2.0 | 0.02 | 0.35 | 0.12 | 98 | 1011.1 |
| 20260504044323 | 56 | 215 | 0.0 | 2.0 | 0.02 | 0.35 | 0.12 | 98 | 1011.2 |
| 20260504044221 | 56 | 197 | 0.0 | 1.0 | 0.02 | 0.35 | 0.12 | 98 | 1011.2 |
| 20260504044100 | 56 | 196 | 0.0 | 1.0 | 0.02 | 0.35 | 0.12 | 98 | 1011.1 |
| 20260504043740 | 56 | 175 | 0.0 | 0.0 | 0.02 | 0.35 | 0.12 | 98 | 1011.2 |
| 20260504043652 | 56 | 175 | 0.0 | 0.0 | 0.02 | 0.35 | 0.12 | 98 | 1011.2 |
| 20260504043552 | 56 | 175 | 0.0 | 0.0 | 0.02 | 0.35 | 0.12 | 98 | 1011.2 |
| 20260504043533 | 56 | 175 | 0.0 | 1.0 | 0.02 | 0.35 | 0.12 | 98 | 1011.2 |
| 20260504043156 | 56 | 175 | 0.0 | 1.0 | 0.02 | 0.35 | 0.12 | 98 | 1011.1 |
| 20260504043135 | 56 | 175 | 0.0 | 1.0 | 0.02 | 0.35 | 0.12 | 98 | 1011.2 |
| 20260504043057 | 56 | 175 | 0.0 | 1.0 | 0.02 | 0.35 | 0.12 | 98 | 1011.2 |
| 20260504043018 | 56 | 175 | 0.0 | 1.0 | 0.02 | 0.35 | 0.12 | 98 | 1011.2 |
| 20260504042920 | 56 | 175 | 0.0 | 1.0 | 0.02 | 0.35 | 0.12 | 98 | 1011.2 |
| 20260504042857 | 56 | 175 | 0.0 | 1.0 | 0.02 | 0.35 | 0.12 | 98 | 1011.2 |
| 20260504042726 | 56 | 175 | 0.0 | 1.0 | 0.02 | 0.35 | 0.11 | 98 | 1011.2 |
| 20260504042608 | 56 | 175 | 0.0 | 1.0 | 0.02 | 0.35 | 0.11 | 98 | 1011.2 |
| 20260504042523 | 56 | 190 | 0.0 | 1.0 | 0.02 | 0.35 | 0.11 | 98 | 1011.3 |
| 20260504042423 | 56 | 190 | 0.0 | 1.0 | 0.02 | 0.35 | 0.11 | 98 | 1011.3 |
| 20260504042332 | 56 | 190 | 0.0 | 1.0 | 0.02 | 0.35 | 0.11 | 98 | 1011.2 |
| 20260504042313 | 56 | 190 | 0.0 | 2.0 | 0.02 | 0.35 | 0.11 | 98 | 1011.3 |
| 20260504042229 | 56 | 190 | 0.0 | 2.0 | 0.02 | 0.35 | 0.11 | 98 | 1011.1 |
| 20260504042114 | 56 | 190 | 0.0 | 2.0 | 0.02 | 0.35 | 0.11 | 98 | 1011.2 |
| 20260504042023 | 56 | 190 | 0.0 | 2.0 | 0.02 | 0.35 | 0.11 | 98 | 1011.3 |
| 20260504041935 | 56 | 190 | 0.0 | 2.0 | 0.02 | 0.35 | 0.11 | 98 | 1011.2 |
| 20260504041842 | 57 | 190 | 0.0 | 2.0 | 0.02 | 0.35 | 0.11 | 98 | 1011.3 |
| 20260504041817 | 57 | 166 | 0.0 | 1.0 | 0.02 | 0.35 | 0.11 | 98 | 1011.2 |
| 20260504041723 | 57 | 162 | 0.0 | 1.0 | 0.02 | 0.35 | 0.11 | 98 | 1011.3 |
| 20260504041333 | 57 | 161 | 0.0 | 1.0 | 0.02 | 0.35 | 0.11 | 98 | 1011.4 |
| 20260504041303 | 57 | 161 | 0.0 | 1.0 | 0.02 | 0.35 | 0.11 | 98 | 1011.3 |
| 20260504041204 | 57 | 161 | 0.0 | 1.0 | 0.02 | 0.35 | 0.10 | 98 | 1011.3 |
| 20260504041110 | 57 | 161 | 0.0 | 1.0 | 0.02 | 0.35 | 0.10 | 98 | 1011.4 |
| 20260504041048 | 57 | 161 | 0.0 | 1.0 | 0.02 | 0.35 | 0.10 | 98 | 1011.3 |
| 20260504041004 | 57 | 161 | 0.0 | 1.0 | 0.02 | 0.35 | 0.10 | 98 | 1011.3 |
| 20260504040904 | 57 | 190 | 0.0 | 0.0 | 0.02 | 0.35 | 0.10 | 98 | 1011.5 |
| 20260504040847 | 57 | 190 | 0.0 | 0.0 | 0.02 | 0.35 | 0.10 | 98 | 1011.4 |
| 20260504040758 | 57 | 190 | 0.0 | 0.0 | 0.02 | 0.35 | 0.10 | 98 | 1011.5 |
| 20260504040721 | 57 | 190 | 0.0 | 0.0 | 0.02 | 0.35 | 0.10 | 98 | 1011.5 |
| 20260504040645 | 57 | 190 | 0.0 | 2.0 | 0.02 | 0.35 | 0.10 | 98 | 1011.5 |
| 20260504040627 | 57 | 190 | 0.0 | 2.0 | 0.02 | 0.35 | 0.10 | 98 | 1011.5 |
| 20260504040535 | 57 | 190 | 0.0 | 2.0 | 0.02 | 0.35 | 0.10 | 98 | 1011.5 |
| 20260504040439 | 57 | 190 | 0.0 | 2.0 | 0.02 | 0.35 | 0.10 | 98 | 1011.5 |
| 20260504040024 | 57 | 190 | 0.0 | 2.0 | 0.02 | 0.34 | 0.10 | 98 | 1011.4 |
| 20260504035918 | 57 | 223 | 0.0 | 2.0 | 0.02 | 0.34 | 0.09 | 98 | 1011.4 |
| 20260504035847 | 57 | 223 | 0.0 | 2.0 | 0.02 | 0.34 | 0.09 | 98 | 1011.4 |
| 20260504035745 | 57 | 223 | 0.0 | 2.0 | 0.02 | 0.34 | 0.09 | 98 | 1011.4 |
| 20260504035629 | 57 | 219 | 1.0 | 2.0 | 0.02 | 0.34 | 0.09 | 98 | 1011.4 |
| 20260504035305 | 57 | 228 | 1.0 | 2.0 | 0.02 | 0.35 | 0.09 | 98 | 1011.5 |
| 20260504035201 | 57 | 228 | 1.0 | 2.0 | 0.02 | 0.35 | 0.09 | 98 | 1011.5 |
| 20260504034812 | 57 | 247 | 1.0 | 2.0 | 0.02 | 0.35 | 0.09 | 98 | 1011.3 |
| 20260504034648 | 58 | 248 | 1.0 | 2.0 | 0.02 | 0.35 | 0.09 | 98 | 1011.5 |
| 20260504034514 | 58 | 241 | 0.0 | 2.0 | 0.02 | 0.35 | 0.09 | 98 | 1011.5 |
| 20260504034149 | 58 | 241 | 0.0 | 2.0 | 0.02 | 0.35 | 0.09 | 98 | 1011.4 |
| 20260504034037 | 58 | 195 | 0.0 | 2.0 | 0.02 | 0.35 | 0.09 | 98 | 1011.3 |
| 20260504033741 | 58 | 195 | 0.0 | 2.0 | 0.02 | 0.35 | 0.09 | 98 | 1011.5 |
| 20260504033650 | 58 | 195 | 0.0 | 2.0 | 0.02 | 0.34 | 0.09 | 98 | 1011.4 |
| 20260504033528 | 58 | 195 | 0.0 | 2.0 | 0.02 | 0.34 | 0.09 | 98 | 1011.6 |
| 20260504033458 | 58 | 195 | 0.0 | 2.0 | 0.02 | 0.34 | 0.09 | 98 | 1011.6 |
| 20260504033041 | 58 | 213 | 1.0 | 2.0 | 0.02 | 0.34 | 0.09 | 98 | 1011.8 |
| 20260504032947 | 58 | 213 | 1.0 | 2.0 | 0.02 | 0.34 | 0.09 | 98 | 1011.7 |
| 20260504032546 | 58 | 216 | 0.0 | 2.0 | 0.02 | 0.34 | 0.09 | 98 | 1011.8 |
| 20260504032437 | 58 | 221 | 0.0 | 2.0 | 0.02 | 0.34 | 0.09 | 98 | 1011.8 |
| 20260504032420 | 58 | 218 | 0.0 | 2.0 | 0.02 | 0.34 | 0.09 | 98 | 1011.8 |
| 20260504032307 | 58 | 216 | 1.0 | 3.0 | 0.02 | 0.34 | 0.09 | 98 | 1011.8 |
| 20260504031904 | 58 | 243 | 1.0 | 3.0 | 0.02 | 0.34 | 0.09 | 98 | 1011.9 |
| 20260504031831 | 58 | 243 | 1.0 | 3.0 | 0.02 | 0.34 | 0.09 | 98 | 1011.8 |
| 20260504031709 | 58 | 207 | 1.0 | 3.0 | 0.02 | 0.34 | 0.09 | 98 | 1011.9 |
| 20260504031532 | 58 | 242 | 2.0 | 3.0 | 0.02 | 0.34 | 0.09 | 98 | 1011.9 |
| 20260504031028 | 58 | 240 | 1.0 | 3.0 | 0.02 | 0.33 | 0.08 | 98 | 1011.9 |
| 20260504030937 | 58 | 246 | 1.0 | 3.0 | 0.02 | 0.33 | 0.08 | 98 | 1011.9 |
| 20260504030853 | 58 | 229 | 1.0 | 3.0 | 0.02 | 0.33 | 0.08 | 98 | 1011.9 |
| 20260504030741 | 58 | 221 | 1.0 | 3.0 | 0.02 | 0.34 | 0.08 | 98 | 1011.9 |
| 20260504030552 | 58 | 240 | 1.0 | 3.0 | 0.02 | 0.34 | 0.08 | 98 | 1011.9 |
| 20260504030444 | 58 | 243 | 1.0 | 3.0 | 0.02 | 0.34 | 0.08 | 98 | 1011.9 |
| 20260504030316 | 58 | 237 | 1.0 | 3.0 | 0.02 | 0.34 | 0.08 | 98 | 1011.8 |
| 20260504030215 | 58 | 279 | 1.0 | 2.0 | 0.02 | 0.34 | 0.08 | 98 | 1011.8 |
| 20260504025810 | 58 | 247 | 1.0 | 3.0 | 0.02 | 0.34 | 0.08 | 98 | 1011.8 |
| 20260504025437 | 58 | 217 | 0.0 | 3.0 | 0.02 | 0.34 | 0.08 | 97 | 1011.8 |
| 20260504025315 | 58 | 217 | 1.0 | 3.0 | 0.02 | 0.34 | 0.08 | 97 | 1012.0 |
| 20260504025148 | 58 | 217 | 2.0 | 3.0 | 0.02 | 0.34 | 0.08 | 97 | 1011.9 |
| 20260504024807 | 58 | 206 | 1.0 | 5.0 | 0.02 | 0.34 | 0.08 | 97 | 1011.9 |
| 20260504024640 | 58 | 190 | 0.0 | 5.0 | 0.02 | 0.34 | 0.08 | 97 | 1011.8 |
| 20260504024321 | 58 | 190 | 0.0 | 5.0 | 0.02 | 0.34 | 0.08 | 97 | 1012.0 |
| 20260504024156 | 58 | 190 | 1.0 | 5.0 | 0.01 | 0.33 | 0.07 | 98 | 1011.9 |
| 20260504024030 | 58 | 174 | 3.0 | 5.0 | 0.02 | 0.33 | 0.07 | 98 | 1011.8 |
| 20260504023949 | 58 | 184 | 4.0 | 5.0 | 0.02 | 0.33 | 0.07 | 98 | 1011.7 |
| 20260504023855 | 58 | 149 | 4.0 | 5.0 | 0.02 | 0.33 | 0.07 | 98 | 1011.8 |
| 20260504023711 | 58 | 124 | 1.0 | 5.0 | 0.02 | 0.33 | 0.07 | 98 | 1011.6 |
| 20260504023523 | 58 | 144 | 0.0 | 7.0 | 0.02 | 0.33 | 0.07 | 98 | 1011.7 |
| 20260504023357 | 58 | 193 | 1.0 | 7.0 | 0.02 | 0.33 | 0.07 | 97 | 1011.8 |
| 20260504023253 | 58 | 222 | 0.0 | 7.0 | 0.02 | 0.33 | 0.07 | 97 | 1011.7 |
| 20260504022906 | 58 | 308 | 0.0 | 7.0 | 0.02 | 0.33 | 0.07 | 97 | 1011.7 |
| 20260504022814 | 58 | 308 | 3.0 | 7.0 | 0.02 | 0.33 | 0.07 | 97 | 1011.8 |
| 20260504022635 | 58 | 270 | 3.0 | 5.0 | 0.02 | 0.33 | 0.07 | 97 | 1011.8 |
| 20260504022107 | 58 | 232 | 2.0 | 5.0 | 0.02 | 0.34 | 0.07 | 97 | 1011.9 |
| 20260504022012 | 58 | 226 | 1.0 | 7.0 | 0.02 | 0.34 | 0.07 | 98 | 1011.8 |
| 20260504021917 | 58 | 232 | 0.0 | 7.0 | 0.02 | 0.34 | 0.07 | 97 | 1011.7 |
| 20260504021746 | 58 | 189 | 0.0 | 7.0 | 0.02 | 0.34 | 0.07 | 97 | 1011.6 |
| 20260504021641 | 58 | 178 | 2.0 | 7.0 | 0.02 | 0.34 | 0.07 | 97 | 1011.4 |
| 20260504021517 | 58 | 180 | 2.0 | 7.0 | 0.01 | 0.33 | 0.07 | 97 | 1011.2 |
| 20260504020737 | 58 | 90 | 3.0 | 7.0 | 0.02 | 0.33 | 0.06 | 97 | 1011.0 |
| 20260504020600 | 58 | 98 | 3.0 | 6.0 | 0.02 | 0.33 | 0.06 | 98 | 1011.1 |
| 20260504020411 | 58 | 67 | 3.0 | 6.0 | 0.02 | 0.33 | 0.06 | 98 | 1011.0 |
| 20260504020013 | 58 | 63 | 2.0 | 6.0 | 0.02 | 0.33 | 0.06 | 97 | 1011.0 |
| 20260504015818 | 58 | 67 | 4.0 | 6.0 | 0.02 | 0.33 | 0.06 | 98 | 1010.9 |
| 20260504015724 | 58 | 63 | 3.0 | 6.0 | 0.02 | 0.33 | 0.06 | 98 | 1011.1 |
| 20260504015630 | 58 | 74 | 3.0 | 6.0 | 0.02 | 0.33 | 0.06 | 98 | 1011.0 |
| 20260504015441 | 58 | 61 | 1.0 | 6.0 | 0.02 | 0.33 | 0.06 | 98 | 1011.0 |
| 20260504015304 | 58 | 91 | 2.0 | 9.0 | 0.02 | 0.33 | 0.06 | 98 | 1011.1 |
| 20260504015127 | 58 | 60 | 2.0 | 9.0 | 0.02 | 0.33 | 0.06 | 97 | 1011.0 |
| 20260504014953 | 58 | 81 | 4.0 | 9.0 | 0.02 | 0.33 | 0.06 | 98 | 1010.9 |
| 20260504014559 | 58 | 69 | 5.0 | 9.0 | 0.02 | 0.33 | 0.06 | 98 | 1010.8 |
| 20260504014408 | 58 | 59 | 6.0 | 9.0 | 0.02 | 0.33 | 0.06 | 98 | 1010.8 |
| 20260504013615 | 58 | 71 | 3.0 | 9.0 | 0.02 | 0.33 | 0.06 | 98 | 1011.0 |
| 20260504013415 | 58 | 75 | 3.0 | 6.0 | 0.02 | 0.32 | 0.06 | 98 | 1011.0 |
| 20260504013320 | 58 | 57 | 3.0 | 6.0 | 0.02 | 0.32 | 0.06 | 98 | 1011.1 |
| 20260504012838 | 58 | 80 | 4.0 | 7.0 | 0.02 | 0.32 | 0.06 | 98 | 1011.0 |
| 20260504012642 | 58 | 67 | 4.0 | 8.0 | 0.02 | 0.33 | 0.06 | 98 | 1011.0 |
| 20260504012459 | 58 | 58 | 4.0 | 8.0 | 0.02 | 0.33 | 0.06 | 98 | 1011.1 |
| 20260504012003 | 58 | 49 | 4.0 | 8.0 | 0.02 | 0.33 | 0.06 | 98 | 1011.1 |
| 20260504011909 | 58 | 86 | 4.0 | 8.0 | 0.02 | 0.33 | 0.06 | 98 | 1011.1 |
| 20260504011716 | 58 | 40 | 3.0 | 8.0 | 0.02 | 0.33 | 0.06 | 98 | 1011.1 |
| 20260504011523 | 58 | 51 | 5.0 | 7.0 | 0.02 | 0.33 | 0.06 | 98 | 1011.1 |
| 20260504011345 | 58 | 44 | 3.0 | 7.0 | 0.02 | 0.33 | 0.06 | 98 | 1011.1 |
| 20260504010849 | 58 | 51 | 3.0 | 6.0 | 0.02 | 0.33 | 0.06 | 98 | 1011.1 |
| 20260504010755 | 58 | 67 | 3.0 | 6.0 | 0.02 | 0.33 | 0.06 | 98 | 1011.1 |
| 20260504010213 | 58 | 53 | 4.0 | 6.0 | 0.02 | 0.33 | 0.06 | 98 | 1011.1 |
| 20260504010043 | 58 | 57 | 4.0 | 6.0 | 0.02 | 0.33 | 0.06 | 98 | 1011.0 |
| 20260504005845 | 58 | 76 | 4.0 | 6.0 | 0.02 | 0.32 | 0.05 | 98 | 1011.1 |
| 20260504005749 | 58 | 66 | 4.0 | 6.0 | 0.02 | 0.32 | 0.05 | 98 | 1011.2 |
| 20260504005700 | 58 | 53 | 3.0 | 6.0 | 0.02 | 0.32 | 0.05 | 98 | 1011.2 |
| 20260504004922 | 58 | 80 | 3.0 | 6.0 | 0.02 | 0.32 | 0.05 | 98 | 1011.1 |
| 20260504004742 | 59 | 113 | 4.0 | 7.0 | 0.02 | 0.32 | 0.05 | 97 | 1011.2 |
| 20260504004547 | 58 | 44 | 2.0 | 7.0 | 0.02 | 0.32 | 0.05 | 98 | 1011.2 |
| 20260504004448 | 59 | 66 | 2.0 | 7.0 | 0.02 | 0.32 | 0.05 | 97 | 1011.2 |
| 20260504004354 | 59 | 62 | 2.0 | 7.0 | 0.02 | 0.32 | 0.05 | 98 | 1011.2 |
| 20260504004202 | 59 | 51 | 4.0 | 7.0 | 0.02 | 0.32 | 0.05 | 97 | 1011.2 |
| 20260504003810 | 58 | 42 | 2.0 | 7.0 | 0.02 | 0.32 | 0.05 | 98 | 1011.2 |
| 20260504003628 | 59 | 61 | 2.0 | 5.0 | 0.02 | 0.32 | 0.05 | 98 | 1011.4 |
| 20260504003139 | 59 | 55 | 2.0 | 5.0 | 0.02 | 0.32 | 0.05 | 97 | 1011.4 |
| 20260504002312 | 59 | 45 | 3.0 | 5.0 | 0.02 | 0.33 | 0.05 | 97 | 1011.4 |
| 20260504002136 | 59 | 55 | 3.0 | 4.0 | 0.02 | 0.32 | 0.04 | 97 | 1011.5 |
| 20260504001943 | 59 | 53 | 1.0 | 4.0 | 0.02 | 0.32 | 0.04 | 97 | 1011.4 |
| 20260504001847 | 59 | 18 | 1.0 | 4.0 | 0.02 | 0.32 | 0.04 | 97 | 1011.5 |
| 20260504001423 | 59 | 345 | 0.0 | 4.0 | 0.02 | 0.32 | 0.04 | 97 | 1011.5 |
| 20260504001311 | 59 | 345 | 1.0 | 4.0 | 0.02 | 0.32 | 0.04 | 97 | 1011.4 |
| 20260504000924 | 59 | 9 | 2.0 | 4.0 | 0.02 | 0.32 | 0.04 | 97 | 1011.3 |
| 20260504000802 | 59 | 9 | 0.0 | 4.0 | 0.02 | 0.32 | 0.04 | 97 | 1011.4 |
| 20260504000723 | 59 | 9 | 1.0 | 4.0 | 0.02 | 0.32 | 0.04 | 97 | 1011.4 |
| 20260504000654 | 59 | 9 | 2.0 | 4.0 | 0.02 | 0.32 | 0.04 | 97 | 1011.3 |
| 20260504000534 | 59 | 352 | 3.0 | 4.0 | 0.02 | 0.32 | 0.04 | 97 | 1011.5 |
| 20260504000347 | 59 | 0 | 2.0 | 4.0 | 0.02 | 0.32 | 0.04 | 97 | 1011.5 |
| 20260504000219 | 59 | 5 | 2.0 | 4.0 | 0.02 | 0.32 | 0.04 | 97 | 1011.5 |
| 20260504000058 | 59 | 5 | 2.0 | 4.0 | 0.02 | 0.32 | 0.04 | 97 | 1011.6 |
| 20260504000015 | 59 | 352 | 2.0 | 4.0 | 0.02 | 0.32 | 0.04 | 97 | 1011.5 |
| 20260503235925 | 59 | 348 | 2.0 | 4.0 | 0.02 | 0.32 | 0.04 | 97 | 1011.4 |
| 20260503235732 | 59 | 15 | 2.0 | 4.0 | 0.02 | 0.31 | 0.03 | 97 | 1011.5 |
| 20260503235559 | 59 | 352 | 1.0 | 5.0 | 0.02 | 0.31 | 0.03 | 97 | 1011.4 |
| 20260503235215 | 59 | 26 | 2.0 | 5.0 | 0.02 | 0.31 | 0.03 | 97 | 1011.4 |
| 20260503235041 | 59 | 11 | 2.0 | 5.0 | 0.02 | 0.31 | 0.03 | 97 | 1011.5 |
| 20260503234655 | 59 | 0 | 3.0 | 5.0 | 0.02 | 0.31 | 0.03 | 97 | 1011.5 |
| 20260503234516 | 59 | 0 | 3.0 | 5.0 | 0.02 | 0.31 | 0.03 | 97 | 1011.5 |
| 20260503234347 | 59 | 5 | 1.0 | 4.0 | 0.02 | 0.31 | 0.03 | 97 | 1011.5 |
| 20260503234012 | 59 | 5 | 2.0 | 4.0 | 0.02 | 0.31 | 0.03 | 97 | 1011.5 |
| 20260503233607 | 59 | 5 | 2.0 | 4.0 | 0.02 | 0.32 | 0.03 | 97 | 1011.6 |
| 20260503233527 | 59 | 5 | 2.0 | 4.0 | 0.02 | 0.32 | 0.03 | 97 | 1011.6 |
| 20260503233411 | 59 | 5 | 2.0 | 4.0 | 0.02 | 0.32 | 0.03 | 97 | 1011.6 |
| 20260503233305 | 59 | 5 | 2.0 | 4.0 | 0.02 | 0.32 | 0.03 | 97 | 1011.7 |
| 20260503232812 | 59 | 0 | 2.0 | 4.0 | 0.02 | 0.31 | 0.02 | 97 | 1011.7 |
| 20260503232725 | 59 | 0 | 2.0 | 4.0 | 0.02 | 0.31 | 0.02 | 97 | 1011.7 |
| 20260503232306 | 59 | 352 | 2.0 | 4.0 | 0.02 | 0.31 | 0.02 | 97 | 1011.7 |
| 20260503232158 | 59 | 352 | 3.0 | 4.0 | 0.02 | 0.31 | 0.02 | 97 | 1011.7 |
| 20260503232152 | 59 | 352 | 3.0 | 4.0 | 0.02 | 0.31 | 0.02 | 97 | 1011.7 |
| 20260503232028 | 59 | 9 | 2.0 | 4.0 | 0.02 | 0.31 | 0.02 | 96 | 1011.7 |
| 20260503231845 | 59 | 5 | 1.0 | 5.0 | 0.02 | 0.31 | 0.02 | 96 | 1011.7 |
| 20260503231522 | 59 | 5 | 2.0 | 5.0 | 0.02 | 0.31 | 0.02 | 96 | 1011.7 |
| 20260503231333 | 59 | 0 | 2.0 | 5.0 | 0.02 | 0.31 | 0.02 | 96 | 1011.8 |
| 20260503231233 | 59 | 0 | 2.0 | 5.0 | 0.02 | 0.31 | 0.02 | 96 | 1011.8 |
| 20260503231214 | 59 | 0 | 2.0 | 5.0 | 0.02 | 0.31 | 0.02 | 96 | 1011.8 |
| 20260503231040 | 59 | 0 | 3.0 | 5.0 | 0.02 | 0.31 | 0.02 | 96 | 1011.7 |
| 20260503230821 | 59 | 350 | 2.0 | 5.0 | 0.02 | 0.31 | 0.02 | 96 | 1011.7 |
| 20260503230708 | 59 | 350 | 2.0 | 5.0 | 0.02 | 0.31 | 0.02 | 96 | 1011.7 |
| 20260503230218 | 59 | 351 | 2.0 | 3.0 | 0.02 | 0.31 | 0.02 | 96 | 1011.7 |
| 20260503225805 | 59 | 45 | 1.0 | 2.0 | 0.02 | 0.31 | 0.02 | 96 | 1011.8 |
| 20260503225610 | 59 | 45 | 0.0 | 1.0 | 0.02 | 0.31 | 0.02 | 96 | 1011.8 |
| 20260503225502 | 59 | 45 | 0.0 | 1.0 | 0.02 | 0.31 | 0.02 | 96 | 1012.0 |
| 20260503225114 | 59 | 45 | 0.0 | 1.0 | 0.02 | 0.31 | 0.02 | 96 | 1011.9 |
| 20260503225047 | 59 | 45 | 0.0 | 1.0 | 0.02 | 0.31 | 0.02 | 96 | 1011.9 |
| 20260503224957 | 59 | 45 | 0.0 | 1.0 | 0.02 | 0.31 | 0.02 | 96 | 1011.9 |
| 20260503224824 | 59 | 45 | 0.0 | 1.0 | 0.02 | 0.31 | 0.02 | 95 | 1011.9 |
| 20260503224722 | 59 | 45 | 0.0 | 1.0 | 0.02 | 0.31 | 0.01 | 95 | 1012.0 |
| 20260503224629 | 59 | 45 | 0.0 | 1.0 | 0.02 | 0.31 | 0.01 | 95 | 1012.0 |
| 20260503224547 | 59 | 45 | 0.0 | 1.0 | 0.02 | 0.31 | 0.01 | 95 | 1011.9 |
| 20260503224522 | 59 | 45 | 0.0 | 1.0 | 0.02 | 0.31 | 0.01 | 95 | 1011.9 |
| 20260503224424 | 59 | 45 | 0.0 | 2.0 | 0.02 | 0.31 | 0.01 | 95 | 1011.9 |
| 20260503224308 | 60 | 45 | 0.0 | 2.0 | 0.02 | 0.31 | 0.01 | 95 | 1011.9 |
| 20260503224218 | 60 | 45 | 0.0 | 2.0 | 0.02 | 0.31 | 0.01 | 95 | 1011.9 |
| 20260503224111 | 60 | 45 | 1.0 | 2.0 | 0.02 | 0.31 | 0.01 | 95 | 1011.8 |
| 20260503224025 | 60 | 45 | 1.0 | 2.0 | 0.02 | 0.31 | 0.01 | 95 | 1011.8 |
| 20260503223943 | 60 | 45 | 1.0 | 2.0 | 0.02 | 0.31 | 0.01 | 95 | 1011.8 |
| 20260503223812 | 60 | 45 | 1.0 | 2.0 | 0.02 | 0.31 | 0.01 | 95 | 1011.8 |
| 20260503223700 | 60 | 68 | 0.0 | 2.0 | 0.02 | 0.31 | 0.01 | 95 | 1011.8 |
| 20260503223403 | 60 | 68 | 0.0 | 3.0 | 0.02 | 0.30 | 0.01 | 95 | 1011.8 |
| 20260503223303 | 60 | 68 | 0.0 | 4.0 | 0.02 | 0.30 | 0.00 | 95 | 1011.9 |
| 20260503223226 | 60 | 68 | 0.0 | 4.0 | 0.02 | 0.30 | 0.00 | 95 | 1011.8 |
| 20260503223146 | 60 | 68 | 1.0 | 4.0 | 0.02 | 0.30 | 0.00 | 95 | 1011.8 |
| 20260503223018 | 60 | 68 | 2.0 | 4.0 | 0.02 | 0.30 | 0.00 | 95 | 1011.8 |
| 20260503222847 | 60 | 58 | 2.0 | 4.0 | 0.02 | 0.30 | 0.00 | 95 | 1011.8 |
| 20260503222737 | 60 | 98 | 1.0 | 4.0 | 0.02 | 0.30 | 0.00 | 95 | 1011.8 |
| 20260503222552 | 60 | 95 | 1.0 | 3.0 | 0.02 | 0.30 | 0.00 | 95 | 1011.7 |
| 20260503222504 | 60 | 106 | 2.0 | 3.0 | 0.02 | 0.30 | 0.00 | 95 | 1011.8 |
| 20260503221709 | 60 | 89 | 2.0 | 4.0 | 0.02 | 0.30 | 0.30 | 95 | 1011.8 |
| 20260503221540 | 60 | 61 | 2.0 | 6.0 | 0.02 | 0.31 | 0.30 | 94 | 1011.8 |
| 20260503221354 | 60 | 106 | 2.0 | 6.0 | 0.02 | 0.31 | 0.30 | 94 | 1011.8 |
| 20260503221306 | 60 | 73 | 1.0 | 6.0 | 0.02 | 0.30 | 0.30 | 94 | 1011.9 |
| 20260503221205 | 60 | 115 | 2.0 | 6.0 | 0.02 | 0.30 | 0.29 | 94 | 1011.9 |
| 20260503221021 | 60 | 119 | 2.0 | 6.0 | 0.02 | 0.30 | 0.29 | 94 | 1011.8 |
| 20260503220855 | 60 | 117 | 3.0 | 6.0 | 0.02 | 0.30 | 0.29 | 94 | 1011.8 |
| 20260503220837 | 60 | 123 | 3.0 | 6.0 | 0.02 | 0.30 | 0.29 | 94 | 1011.8 |
| 20260503220655 | 60 | 109 | 2.0 | 4.0 | 0.02 | 0.30 | 0.29 | 94 | 1011.9 |
| 20260503220508 | 60 | 102 | 3.0 | 4.0 | 0.02 | 0.30 | 0.29 | 94 | 1011.9 |
| 20260503220424 | 60 | 86 | 3.0 | 4.0 | 0.02 | 0.30 | 0.29 | 94 | 1011.8 |
| 20260503220321 | 60 | 88 | 2.0 | 4.0 | 0.02 | 0.30 | 0.29 | 94 | 1011.9 |
| 20260503220127 | 60 | 97 | 2.0 | 6.0 | 0.02 | 0.30 | 0.29 | 94 | 1012.0 |
| 20260503220001 | 60 | 121 | 2.0 | 6.0 | 0.02 | 0.30 | 0.29 | 94 | 1012.0 |
| 20260503215945 | 60 | 128 | 2.0 | 6.0 | 0.02 | 0.30 | 0.29 | 94 | 1011.9 |
| 20260503215812 | 60 | 148 | 3.0 | 6.0 | 0.02 | 0.30 | 0.29 | 94 | 1012.0 |
| 20260503215614 | 60 | 143 | 3.0 | 6.0 | 0.02 | 0.30 | 0.29 | 94 | 1012.0 |
| 20260503215217 | 60 | 119 | 3.0 | 6.0 | 0.02 | 0.29 | 0.29 | 94 | 1012.0 |
| 20260503215014 | 60 | 130 | 2.0 | 4.0 | 0.02 | 0.29 | 0.28 | 94 | 1012.0 |
| 20260503214846 | 60 | 130 | 2.0 | 4.0 | 0.02 | 0.29 | 0.28 | 94 | 1012.0 |
| 20260503214821 | 60 | 121 | 2.0 | 4.0 | 0.02 | 0.29 | 0.28 | 94 | 1012.0 |
| 20260503214246 | 60 | 132 | 2.0 | 4.0 | 0.02 | 0.29 | 0.28 | 94 | 1012.0 |
| 20260503213851 | 60 | 112 | 1.0 | 4.0 | 0.02 | 0.29 | 0.28 | 94 | 1012.1 |
| 20260503213703 | 60 | 107 | 2.0 | 5.0 | 0.02 | 0.29 | 0.28 | 94 | 1012.1 |
| 20260503213615 | 60 | 103 | 2.0 | 5.0 | 0.02 | 0.29 | 0.28 | 94 | 1012.2 |
| 20260503213548 | 60 | 117 | 2.0 | 5.0 | 0.02 | 0.29 | 0.28 | 94 | 1012.2 |
| 20260503213411 | 60 | 115 | 2.0 | 5.0 | 0.02 | 0.29 | 0.28 | 94 | 1012.2 |
| 20260503213229 | 60 | 144 | 2.0 | 6.0 | 0.02 | 0.30 | 0.28 | 94 | 1012.1 |
| 20260503213151 | 60 | 132 | 2.0 | 6.0 | 0.02 | 0.29 | 0.28 | 94 | 1012.2 |
| 20260503213036 | 60 | 101 | 2.0 | 6.0 | 0.02 | 0.29 | 0.28 | 94 | 1012.1 |
| 20260503212841 | 60 | 117 | 2.0 | 6.0 | 0.02 | 0.29 | 0.28 | 94 | 1012.1 |
| 20260503212728 | 60 | 161 | 3.0 | 6.0 | 0.02 | 0.29 | 0.28 | 94 | 1012.1 |
| 20260503212651 | 60 | 99 | 3.0 | 6.0 | 0.02 | 0.29 | 0.28 | 94 | 1012.0 |
| 20260503212513 | 60 | 101 | 2.0 | 4.0 | 0.02 | 0.29 | 0.28 | 94 | 1012.1 |
| 20260503212311 | 60 | 80 | 3.0 | 5.0 | 0.02 | 0.29 | 0.28 | 94 | 1012.1 |
| 20260503212240 | 60 | 101 | 3.0 | 5.0 | 0.02 | 0.29 | 0.28 | 93 | 1012.1 |
| 20260503212128 | 60 | 132 | 3.0 | 5.0 | 0.02 | 0.29 | 0.28 | 94 | 1012.2 |
| 20260503211931 | 61 | 142 | 2.0 | 5.0 | 0.02 | 0.29 | 0.28 | 94 | 1012.2 |
| 20260503211750 | 61 | 117 | 3.0 | 5.0 | 0.02 | 0.29 | 0.28 | 94 | 1012.1 |
| 20260503211607 | 61 | 117 | 2.0 | 5.0 | 0.02 | 0.29 | 0.28 | 94 | 1012.1 |
| 20260503211423 | 61 | 134 | 3.0 | 5.0 | 0.02 | 0.29 | 0.28 | 93 | 1012.2 |
| 20260503211351 | 61 | 142 | 3.0 | 5.0 | 0.02 | 0.29 | 0.28 | 94 | 1012.1 |
| 20260503211227 | 61 | 141 | 3.0 | 5.0 | 0.02 | 0.29 | 0.28 | 93 | 1012.1 |
| 20260503211032 | 61 | 130 | 3.0 | 5.0 | 0.02 | 0.29 | 0.28 | 93 | 1012.1 |
| 20260503210914 | 61 | 123 | 2.0 | 5.0 | 0.02 | 0.28 | 0.28 | 93 | 1012.1 |
| 20260503210842 | 61 | 134 | 2.0 | 5.0 | 0.02 | 0.28 | 0.28 | 93 | 1012.1 |
| 20260503210655 | 61 | 130 | 3.0 | 5.0 | 0.02 | 0.28 | 0.27 | 93 | 1012.1 |
| 20260503210240 | 61 | 132 | 2.0 | 5.0 | 0.02 | 0.28 | 0.27 | 93 | 1012.0 |
| 20260503210117 | 61 | 132 | 2.0 | 4.0 | 0.02 | 0.28 | 0.27 | 93 | 1012.0 |
| 20260503205348 | 61 | 111 | 2.0 | 6.0 | 0.02 | 0.28 | 0.27 | 93 | 1011.8 |
| 20260503205213 | 61 | 76 | 2.0 | 6.0 | 0.02 | 0.28 | 0.27 | 93 | 1011.9 |
| 20260503205035 | 61 | 94 | 3.0 | 6.0 | 0.02 | 0.28 | 0.27 | 93 | 1011.7 |
| 20260503203848 | 62 | 105 | 3.0 | 6.0 | 0.02 | 0.28 | 0.27 | 93 | 1011.7 |
| 20260503203711 | 62 | 86 | 2.0 | 6.0 | 0.02 | 0.28 | 0.27 | 93 | 1011.6 |
| 20260503203517 | 62 | 80 | 3.0 | 6.0 | 0.02 | 0.28 | 0.27 | 93 | 1011.6 |
| 20260503203124 | 62 | 103 | 3.0 | 8.0 | 0.02 | 0.28 | 0.26 | 93 | 1011.7 |
| 20260503202931 | 62 | 105 | 4.0 | 8.0 | 0.02 | 0.28 | 0.26 | 93 | 1011.7 |
| 20260503202808 | 62 | 80 | 3.0 | 8.0 | 0.02 | 0.28 | 0.26 | 93 | 1011.7 |
| 20260503202736 | 62 | 93 | 3.0 | 8.0 | 0.02 | 0.28 | 0.26 | 93 | 1011.7 |
| 20260503202200 | 62 | 137 | 4.0 | 8.0 | 0.02 | 0.28 | 0.26 | 93 | 1011.6 |
| 20260503202125 | 62 | 65 | 4.0 | 8.0 | 0.02 | 0.28 | 0.26 | 93 | 1011.8 |
| 20260503202013 | 62 | 117 | 4.0 | 8.0 | 0.02 | 0.28 | 0.26 | 93 | 1011.7 |
| 20260503201818 | 62 | 119 | 4.0 | 9.0 | 0.02 | 0.28 | 0.26 | 93 | 1011.7 |
| 20260503201425 | 62 | 121 | 5.0 | 10.0 | 0.02 | 0.28 | 0.26 | 93 | 1011.6 |
| 20260503201229 | 62 | 86 | 4.0 | 10.0 | 0.02 | 0.28 | 0.26 | 94 | 1011.6 |
| 20260503201048 | 62 | 150 | 4.0 | 10.0 | 0.02 | 0.28 | 0.26 | 94 | 1011.5 |
| 20260503201019 | 62 | 67 | 4.0 | 10.0 | 0.02 | 0.28 | 0.26 | 94 | 1011.6 |
| 20260503200847 | 62 | 105 | 3.0 | 10.0 | 0.02 | 0.28 | 0.26 | 94 | 1011.6 |
| 20260503200649 | 62 | 108 | 5.0 | 10.0 | 0.02 | 0.28 | 0.26 | 94 | 1011.5 |
| 20260503200538 | 62 | 127 | 4.0 | 10.0 | 0.02 | 0.28 | 0.26 | 94 | 1011.5 |
| 20260503200058 | 62 | 124 | 3.0 | 7.0 | 0.02 | 0.28 | 0.25 | 94 | 1011.4 |
| 20260503195926 | 62 | 114 | 4.0 | 7.0 | 0.02 | 0.28 | 0.25 | 94 | 1011.4 |
| 20260503195857 | 62 | 111 | 4.0 | 7.0 | 0.02 | 0.28 | 0.25 | 94 | 1011.4 |
| 20260503195740 | 62 | 107 | 2.0 | 7.0 | 0.02 | 0.28 | 0.25 | 94 | 1011.4 |
| 20260503195548 | 62 | 105 | 4.0 | 7.0 | 0.02 | 0.28 | 0.25 | 94 | 1011.4 |
| 20260503195442 | 62 | 115 | 4.0 | 7.0 | 0.02 | 0.28 | 0.25 | 94 | 1011.4 |
| 20260503195403 | 62 | 109 | 3.0 | 7.0 | 0.02 | 0.28 | 0.25 | 94 | 1011.4 |
| 20260503195209 | 62 | 88 | 2.0 | 7.0 | 0.02 | 0.28 | 0.25 | 94 | 1011.5 |
| 20260503195034 | 62 | 89 | 3.0 | 7.0 | 0.02 | 0.28 | 0.25 | 94 | 1011.4 |
| 20260503195012 | 62 | 134 | 3.0 | 7.0 | 0.02 | 0.28 | 0.25 | 94 | 1011.4 |
| 20260503194448 | 63 | 92 | 2.0 | 7.0 | 0.02 | 0.28 | 0.25 | 94 | 1011.4 |
| 20260503194338 | 63 | 101 | 3.0 | 7.0 | 0.02 | 0.28 | 0.25 | 94 | 1011.4 |
| 20260503194301 | 63 | 84 | 4.0 | 7.0 | 0.02 | 0.28 | 0.25 | 94 | 1011.3 |
| 20260503194101 | 63 | 86 | 2.0 | 5.0 | 0.02 | 0.28 | 0.25 | 94 | 1011.3 |
| 20260503193932 | 63 | 120 | 2.0 | 4.0 | 0.02 | 0.28 | 0.25 | 94 | 1011.4 |
| 20260503193915 | 63 | 107 | 2.0 | 4.0 | 0.02 | 0.28 | 0.25 | 94 | 1011.4 |
| 20260503193758 | 63 | 113 | 2.0 | 4.0 | 0.02 | 0.28 | 0.25 | 94 | 1011.2 |
| 20260503193555 | 63 | 109 | 2.0 | 4.0 | 0.02 | 0.28 | 0.25 | 94 | 1011.3 |
| 20260503193108 | 63 | 110 | 2.0 | 4.0 | 0.01 | 0.28 | 0.25 | 94 | 1011.3 |
| 20260503192916 | 63 | 95 | 2.0 | 4.0 | 0.02 | 0.28 | 0.24 | 94 | 1011.2 |
| 20260503192525 | 63 | 88 | 1.0 | 2.0 | 0.02 | 0.28 | 0.24 | 94 | 1011.2 |
| 20260503192326 | 63 | 53 | 1.0 | 2.0 | 0.02 | 0.28 | 0.24 | 94 | 1011.1 |
| 20260503192213 | 63 | 53 | 0.0 | 2.0 | 0.02 | 0.28 | 0.24 | 94 | 1011.1 |
| 20260503192136 | 63 | 53 | 0.0 | 0.0 | 0.02 | 0.28 | 0.24 | 94 | 1011.1 |
| 20260503191653 | 63 | 53 | 0.0 | 0.0 | 0.02 | 0.28 | 0.24 | 94 | 1010.9 |
| 20260503191545 | 63 | 53 | 0.0 | 0.0 | 0.02 | 0.28 | 0.24 | 93 | 1011.0 |
| 20260503191356 | 63 | 53 | 0.0 | 0.0 | 0.02 | 0.28 | 0.24 | 93 | 1010.9 |
| 20260503191245 | 63 | 53 | 0.0 | 0.0 | 0.02 | 0.28 | 0.24 | 93 | 1011.0 |
| 20260503190538 | 63 | 53 | 0.0 | 2.0 | 0.02 | 0.28 | 0.24 | 93 | 1010.9 |
| 20260503190438 | 63 | 53 | 0.0 | 2.0 | 0.02 | 0.28 | 0.24 | 93 | 1010.9 |
| 20260503190252 | 63 | 53 | 0.0 | 3.0 | 0.02 | 0.28 | 0.24 | 93 | 1010.9 |
| 20260503190125 | 63 | 53 | 1.0 | 3.0 | 0.02 | 0.28 | 0.24 | 93 | 1010.9 |
| 20260503190047 | 63 | 53 | 1.0 | 4.0 | 0.02 | 0.28 | 0.24 | 92 | 1010.9 |
| 20260503190002 | 63 | 53 | 1.0 | 4.0 | 0.02 | 0.28 | 0.24 | 93 | 1010.9 |
| 20260503185346 | 63 | 58 | 2.0 | 4.0 | 0.02 | 0.27 | 0.24 | 92 | 1010.8 |
| 20260503185130 | 63 | 46 | 2.0 | 4.0 | 0.02 | 0.27 | 0.24 | 92 | 1010.9 |
| 20260503184926 | 63 | 44 | 2.0 | 4.0 | 0.02 | 0.27 | 0.24 | 92 | 1010.8 |
| 20260503184839 | 63 | 63 | 2.0 | 4.0 | 0.02 | 0.27 | 0.24 | 92 | 1010.8 |
| 20260503184744 | 63 | 312 | 1.0 | 3.0 | 0.02 | 0.27 | 0.24 | 92 | 1010.8 |
| 20260503184441 | 63 | 148 | 0.0 | 0.0 | 0.02 | 0.27 | 0.24 | 91 | 1010.8 |
| 20260503184425 | 63 | 146 | 3.0 | 6.0 | 0.02 | 0.24 | 0.18 | 94 | 1011.2 |
| 20260503184309 | 63 | 148 | 0.0 | 0.0 | 0.02 | 0.27 | 0.24 | 91 | 1010.8 |
| 20260503184040 | 63 | 148 | 0.0 | 0.0 | 0.02 | 0.27 | 0.24 | 91 | 1010.8 |
| 20260503183840 | 63 | 148 | 0.0 | 0.0 | 0.02 | 0.27 | 0.24 | 91 | 1010.8 |
| 20260503183755 | 63 | 148 | 0.0 | 0.0 | 0.02 | 0.27 | 0.24 | 91 | 1010.7 |
| 20260503183732 | 63 | 148 | 0.0 | 0.0 | 0.02 | 0.27 | 0.24 | 91 | 1010.7 |
| 20260503183440 | 63 | 148 | 0.0 | 0.0 | 0.02 | 0.27 | 0.24 | 91 | 1010.7 |
| 20260503183311 | 63 | 148 | 0.0 | 0.0 | 0.02 | 0.27 | 0.24 | 91 | 1010.8 |
| 20260503183117 | 63 | 148 | 0.0 | 0.0 | 0.02 | 0.27 | 0.24 | 91 | 1010.7 |
| 20260503183016 | 63 | 148 | 0.0 | 0.0 | 0.02 | 0.27 | 0.24 | 90 | 1010.7 |
| 20260503182948 | 63 | 148 | 0.0 | 0.0 | 0.02 | 0.27 | 0.24 | 90 | 1010.8 |
| 20260503182922 | 64 | 148 | 0.0 | 0.0 | 0.02 | 0.26 | 0.24 | 90 | 1010.8 |
| 20260503182659 | 64 | 148 | 0.0 | 0.0 | 0.02 | 0.26 | 0.23 | 90 | 1010.7 |
| 20260503182600 | 64 | 148 | 0.0 | 0.0 | 0.02 | 0.27 | 0.23 | 89 | 1010.7 |
| 20260503182428 | 64 | 148 | 0.0 | 0.0 | 0.02 | 0.27 | 0.23 | 89 | 1010.7 |
| 20260503182322 | 64 | 148 | 0.0 | 0.0 | 0.02 | 0.27 | 0.23 | 89 | 1010.7 |
| 20260503182255 | 64 | 148 | 0.0 | 0.0 | 0.02 | 0.27 | 0.23 | 89 | 1010.7 |
| 20260503182216 | 64 | 148 | 0.0 | 0.0 | 0.02 | 0.27 | 0.23 | 89 | 1010.7 |
| 20260503182107 | 64 | 148 | 0.0 | 0.0 | 0.02 | 0.27 | 0.23 | 89 | 1010.7 |
| 20260503182010 | 64 | 148 | 0.0 | 0.0 | 0.02 | 0.27 | 0.23 | 89 | 1010.7 |
| 20260503181647 | 64 | 148 | 0.0 | 0.0 | 0.02 | 0.27 | 0.23 | 88 | 1010.6 |
| 20260503181317 | 65 | 148 | 0.0 | 0.0 | 0.02 | 0.27 | 0.23 | 89 | 1010.7 |
| 20260503181249 | 65 | 148 | 0.0 | 0.0 | 0.02 | 0.27 | 0.23 | 89 | 1010.7 |
| 20260503181137 | 65 | 148 | 0.0 | 0.0 | 0.02 | 0.27 | 0.23 | 88 | 1010.7 |
| 20260503181044 | 65 | 148 | 0.0 | 0.0 | 0.02 | 0.27 | 0.23 | 88 | 1010.7 |
| 20260503180955 | 65 | 148 | 0.0 | 0.0 | 0.02 | 0.27 | 0.23 | 87 | 1010.7 |
| 20260503180844 | 65 | 148 | 0.0 | 0.0 | 0.02 | 0.26 | 0.22 | 87 | 1010.7 |
| 20260503180538 | 65 | 148 | 0.0 | 0.0 | 0.02 | 0.26 | 0.22 | 87 | 1010.7 |
| 20260503180437 | 65 | 148 | 0.0 | 0.0 | 0.02 | 0.26 | 0.22 | 87 | 1010.7 |
| 20260503180333 | 65 | 148 | 0.0 | 0.0 | 0.02 | 0.26 | 0.22 | 86 | 1010.7 |
| 20260503180248 | 65 | 148 | 0.0 | 0.0 | 0.02 | 0.26 | 0.22 | 86 | 1010.7 |
| 20260503180152 | 65 | 148 | 0.0 | 0.0 | 0.02 | 0.26 | 0.22 | 86 | 1010.7 |
| 20260503180123 | 65 | 148 | 0.0 | 0.0 | 0.02 | 0.26 | 0.22 | 86 | 1010.7 |
| 20260503180052 | 65 | 148 | 0.0 | 0.0 | 0.02 | 0.26 | 0.22 | 86 | 1010.6 |
| 20260503175944 | 65 | 148 | 0.0 | 0.0 | 0.02 | 0.26 | 0.22 | 85 | 1010.7 |
| 20260503175838 | 65 | 148 | 0.0 | 0.0 | 0.02 | 0.26 | 0.22 | 84 | 1010.6 |
| 20260503175546 | 65 | 148 | 0.0 | 0.0 | 0.02 | 0.26 | 0.22 | 84 | 1010.7 |
| 20260503175445 | 65 | 148 | 0.0 | 0.0 | 0.02 | 0.26 | 0.22 | 84 | 1010.7 |
| 20260503175415 | 65 | 148 | 0.0 | 0.0 | 0.02 | 0.26 | 0.22 | 84 | 1010.7 |
| 20260503175351 | 65 | 148 | 0.0 | 0.0 | 0.02 | 0.26 | 0.22 | 84 | 1010.7 |
| 20260503175258 | 65 | 148 | 0.0 | 0.0 | 0.02 | 0.26 | 0.22 | 84 | 1010.7 |
| 20260503175141 | 65 | 148 | 0.0 | 0.0 | 0.02 | 0.26 | 0.22 | 85 | 1010.7 |
| 20260503175048 | 65 | 148 | 0.0 | 0.0 | 0.02 | 0.25 | 0.21 | 84 | 1010.7 |
| 20260503174931 | 65 | 148 | 0.0 | 0.0 | 0.02 | 0.25 | 0.21 | 84 | 1010.7 |
| 20260503174859 | 65 | 148 | 0.0 | 0.0 | 0.02 | 0.25 | 0.21 | 84 | 1010.7 |
| 20260503174833 | 65 | 148 | 0.0 | 0.0 | 0.02 | 0.25 | 0.21 | 84 | 1010.7 |
| 20260503174723 | 65 | 148 | 0.0 | 0.0 | 0.02 | 0.25 | 0.21 | 84 | 1010.7 |
| 20260503174618 | 65 | 148 | 0.0 | 0.0 | 0.02 | 0.25 | 0.21 | 85 | 1010.6 |
| 20260503174524 | 65 | 148 | 0.0 | 0.0 | 0.02 | 0.25 | 0.21 | 85 | 1010.8 |
| 20260503174428 | 65 | 148 | 0.0 | 1.0 | 0.02 | 0.25 | 0.21 | 85 | 1010.8 |
| 20260503174349 | 65 | 148 | 0.0 | 2.0 | 0.02 | 0.25 | 0.21 | 85 | 1010.8 |
| 20260503174328 | 65 | 148 | 0.0 | 2.0 | 0.02 | 0.25 | 0.21 | 85 | 1010.7 |
| 20260503174225 | 65 | 148 | 0.0 | 2.0 | 0.02 | 0.26 | 0.21 | 86 | 1010.7 |
| 20260503174103 | 65 | 148 | 0.0 | 2.0 | 0.02 | 0.26 | 0.21 | 86 | 1010.8 |
| 20260503173933 | 65 | 148 | 1.0 | 2.0 | 0.02 | 0.26 | 0.21 | 85 | 1010.7 |
| 20260503173824 | 65 | 148 | 0.0 | 2.0 | 0.02 | 0.26 | 0.21 | 85 | 1010.8 |
| 20260503173741 | 65 | 148 | 0.0 | 1.0 | 0.02 | 0.26 | 0.21 | 85 | 1010.7 |
| 20260503173714 | 65 | 148 | 0.0 | 1.0 | 0.02 | 0.26 | 0.21 | 85 | 1010.7 |
| 20260503173608 | 65 | 148 | 0.0 | 1.0 | 0.02 | 0.25 | 0.20 | 85 | 1010.8 |
| 20260503173508 | 65 | 148 | 0.0 | 1.0 | 0.02 | 0.25 | 0.20 | 84 | 1010.8 |
| 20260503173201 | 65 | 148 | 0.0 | 1.0 | 0.02 | 0.25 | 0.20 | 84 | 1010.8 |
| 20260503173103 | 65 | 146 | 0.0 | 2.0 | 0.02 | 0.25 | 0.20 | 85 | 1010.9 |
| 20260503172758 | 65 | 146 | 0.0 | 2.0 | 0.02 | 0.25 | 0.20 | 84 | 1010.9 |
| 20260503172647 | 65 | 146 | 0.0 | 3.0 | 0.02 | 0.25 | 0.20 | 84 | 1010.8 |
| 20260503172606 | 65 | 146 | 0.0 | 3.0 | 0.02 | 0.25 | 0.20 | 84 | 1010.8 |
| 20260503172542 | 65 | 146 | 0.0 | 3.0 | 0.02 | 0.25 | 0.20 | 84 | 1010.8 |
| 20260503172420 | 65 | 146 | 1.0 | 3.0 | 0.02 | 0.25 | 0.20 | 83 | 1010.9 |
| 20260503172315 | 65 | 146 | 1.0 | 3.0 | 0.02 | 0.25 | 0.20 | 83 | 1010.8 |
| 20260503172223 | 65 | 150 | 1.0 | 3.0 | 0.02 | 0.25 | 0.20 | 84 | 1010.9 |
| 20260503172100 | 65 | 117 | 0.0 | 3.0 | 0.02 | 0.25 | 0.20 | 84 | 1010.9 |
| 20260503171441 | 65 | 117 | 0.0 | 3.0 | 0.02 | 0.24 | 0.20 | 85 | 1010.8 |
| 20260503171113 | 65 | 117 | 1.0 | 3.0 | 0.02 | 0.24 | 0.20 | 83 | 1010.7 |
| 20260503170319 | 65 | 117 | 2.0 | 3.0 | 0.02 | 0.24 | 0.20 | 84 | 1010.9 |
| 20260503170246 | 65 | 117 | 2.0 | 3.0 | 0.02 | 0.24 | 0.20 | 85 | 1010.8 |
| 20260503170109 | 65 | 128 | 1.0 | 4.0 | 0.02 | 0.24 | 0.20 | 86 | 1010.8 |
| 20260503160206 | 63 | 138 | 3.0 | 7.0 | 0.02 | 0.24 | 0.18 | 94 | 1011.3 |
| 20260503150805 | 64 | 293 | 1.0 | 3.0 | 0.02 | 0.23 | 0.17 | 88 | 1012.1 |
| 20260503150645 | 64 | 186 | 1.0 | 6.0 | 0.02 | 0.23 | 0.17 | 87 | 1012.1 |
| 20260503150524 | 65 | 189 | 1.0 | 6.0 | 0.02 | 0.23 | 0.17 | 86 | 1012.2 |
| 20260503150517 | 65 | 189 | 1.0 | 6.0 | 0.02 | 0.23 | 0.17 | 86 | 1012.2 |
| 20260503150344 | 65 | 262 | 0.0 | 6.0 | 0.02 | 0.23 | 0.17 | 87 | 1012.1 |
| 20260503150209 | 65 | 142 | 1.0 | 6.0 | 0.02 | 0.23 | 0.17 | 86 | 1012.1 |
| 20260503150138 | 65 | 142 | 3.0 | 6.0 | 0.02 | 0.23 | 0.17 | 85 | 1012.2 |
| 20260503131202 | 67 | 134 | 3.0 | 6.0 | 0.01 | 0.21 | 0.14 | 79 | 1012.7 |
| 20260503131150 | 67 | 121 | 3.0 | 6.0 | 0.01 | 0.21 | 0.14 | 79 | 1012.7 |
| 20260503130654 | 67 | 91 | 1.0 | 6.0 | 0.01 | 0.21 | 0.14 | 79 | 1012.7 |
| 20260503130611 | 67 | 126 | 2.0 | 6.0 | 0.01 | 0.21 | 0.14 | 78 | 1012.7 |
| 20260503130520 | 67 | 122 | 3.0 | 6.0 | 0.01 | 0.21 | 0.14 | 78 | 1012.7 |
| 20260503130342 | 67 | 120 | 2.0 | 9.0 | 0.02 | 0.21 | 0.14 | 79 | 1012.7 |
| 20260503110822 | 67 | 138 | 4.0 | 10.0 | 0.02 | 0.20 | 0.13 | 82 | 1013.1 |
| 20260503110731 | 66 | 123 | 3.0 | 10.0 | 0.02 | 0.20 | 0.13 | 81 | 1013.1 |
| 20260503110220 | 66 | 98 | 4.0 | 10.0 | 0.01 | 0.20 | 0.12 | 81 | 1013.2 |
| 20260503100223 | 64 | 116 | 3.0 | 7.0 | 0.01 | 0.19 | 0.11 | 87 | 1013.5 |
| 20260503100156 | 64 | 88 | 3.0 | 7.0 | 0.01 | 0.19 | 0.11 | 87 | 1013.4 |
| 20260503090253 | 61 | 66 | 0.0 | 5.0 | 0.01 | 0.18 | 0.10 | 99 | 1013.6 |
| 20260503090128 | 61 | 66 | 2.0 | 5.0 | 0.01 | 0.18 | 0.10 | 99 | 1013.6 |
| 20260503081530 | 60 | 145 | 1.0 | 3.0 | 0.01 | 0.18 | 0.09 | 100 | 1013.7 |
| 20260503081406 | 60 | 145 | 1.0 | 3.0 | 0.01 | 0.18 | 0.09 | 99 | 1013.6 |
| 20260503081254 | 60 | 94 | 1.0 | 3.0 | 0.01 | 0.18 | 0.09 | 99 | 1013.6 |
| 20260503081244 | 60 | 94 | 1.0 | 3.0 | 0.01 | 0.18 | 0.09 | 99 | 1013.7 |
| 20260503081103 | 60 | 117 | 2.0 | 3.0 | 0.01 | 0.18 | 0.09 | 99 | 1013.6 |
| 20260503080939 | 60 | 134 | 2.0 | 3.0 | 0.01 | 0.18 | 0.09 | 100 | 1013.7 |
| 20260503080853 | 60 | 145 | 2.0 | 3.0 | 0.01 | 0.18 | 0.09 | 100 | 1013.7 |
| 20260503080352 | 60 | 96 | 1.0 | 3.0 | 0.01 | 0.18 | 0.09 | 100 | 1013.7 |
| 20260503080214 | 60 | 153 | 0.0 | 4.0 | 0.01 | 0.18 | 0.09 | 100 | 1013.6 |
| 20260503080158 | 60 | 170 | 0.0 | 4.0 | 0.01 | 0.18 | 0.09 | 100 | 1013.6 |
| 20260503072835 | 59 | 87 | 0.0 | 3.0 | 0.01 | 0.17 | 0.09 | 100 | 1013.5 |
| 20260503072703 | 59 | 87 | 1.0 | 3.0 | 0.01 | 0.17 | 0.09 | 100 | 1013.5 |
| 20260503072448 | 59 | 103 | 1.0 | 3.0 | 0.01 | 0.17 | 0.09 | 100 | 1013.4 |
| 20260503072316 | 59 | 126 | 1.0 | 3.0 | 0.01 | 0.17 | 0.09 | 100 | 1013.4 |
| 20260503072156 | 59 | 65 | 2.0 | 3.0 | 0.01 | 0.17 | 0.09 | 100 | 1013.4 |
| 20260503072132 | 59 | 65 | 2.0 | 3.0 | 0.01 | 0.17 | 0.09 | 100 | 1013.3 |
| 20260503072010 | 59 | 83 | 1.0 | 3.0 | 0.01 | 0.17 | 0.09 | 100 | 1013.4 |
| 20260503071838 | 59 | 57 | 1.0 | 3.0 | 0.01 | 0.17 | 0.09 | 100 | 1013.4 |
| 20260503071823 | 59 | 57 | 1.0 | 3.0 | 0.01 | 0.17 | 0.09 | 100 | 1013.3 |
| 20260503071704 | 58 | 74 | 0.0 | 3.0 | 0.01 | 0.17 | 0.09 | 100 | 1013.3 |
| 20260503071218 | 58 | 76 | 2.0 | 3.0 | 0.01 | 0.17 | 0.09 | 100 | 1013.3 |
| 20260503071151 | 58 | 76 | 2.0 | 3.0 | 0.01 | 0.17 | 0.09 | 100 | 1013.3 |
| 20260503070521 | 58 | 83 | 1.0 | 3.0 | 0.01 | 0.17 | 0.09 | 100 | 1013.3 |
| 20260503070324 | 58 | 123 | 2.0 | 3.0 | 0.01 | 0.17 | 0.09 | 100 | 1013.3 |
| 20260503070136 | 58 | 123 | 0.0 | 3.0 | 0.01 | 0.17 | 0.09 | 100 | 1013.3 |
| 20260503060326 | 57 | 44 | 0.0 | 0.0 | 0.01 | 0.17 | 0.08 | 99 | 1012.9 |
| 20260503060307 | 60 | 120 | 2.0 | 4.0 | 0.02 | 0.13 | 0.02 | 98 | 1013.7 |
| 20260503060225 | 57 | 44 | 0.0 | 0.0 | 0.01 | 0.17 | 0.08 | 99 | 1012.9 |
| 20260503060208 | 57 | 44 | 0.0 | 0.0 | 0.01 | 0.17 | 0.08 | 99 | 1012.9 |
| 20260503055117 | 57 | 44 | 0.0 | 0.0 | 0.01 | 0.17 | 0.07 | 99 | 1012.9 |
| 20260503054744 | 57 | 44 | 0.0 | 0.0 | 0.01 | 0.17 | 0.07 | 99 | 1012.9 |
| 20260503054633 | 56 | 44 | 0.0 | 0.0 | 0.01 | 0.17 | 0.07 | 99 | 1012.9 |
| 20260503054601 | 56 | 44 | 0.0 | 0.0 | 0.01 | 0.17 | 0.07 | 99 | 1012.8 |
| 20260503054535 | 56 | 44 | 0.0 | 0.0 | 0.01 | 0.17 | 0.07 | 99 | 1012.8 |
| 20260503054430 | 56 | 44 | 0.0 | 0.0 | 0.01 | 0.17 | 0.07 | 99 | 1012.9 |
| 20260503053737 | 56 | 44 | 0.0 | 0.0 | 0.01 | 0.17 | 0.07 | 99 | 1012.8 |
| 20260503053641 | 56 | 44 | 0.0 | 0.0 | 0.01 | 0.17 | 0.07 | 99 | 1012.7 |
| 20260503053611 | 56 | 44 | 0.0 | 0.0 | 0.01 | 0.17 | 0.07 | 99 | 1012.7 |
| 20260503053545 | 56 | 44 | 0.0 | 0.0 | 0.01 | 0.17 | 0.07 | 99 | 1012.6 |
| 20260503053411 | 56 | 44 | 0.0 | 0.0 | 0.01 | 0.17 | 0.07 | 99 | 1012.7 |
| 20260503053310 | 56 | 44 | 0.0 | 0.0 | 0.01 | 0.17 | 0.07 | 99 | 1012.7 |
| 20260503053208 | 56 | 44 | 0.0 | 0.0 | 0.01 | 0.17 | 0.07 | 99 | 1012.7 |
| 20260503053133 | 56 | 44 | 0.0 | 0.0 | 0.01 | 0.17 | 0.07 | 99 | 1012.7 |
| 20260503052824 | 56 | 44 | 0.0 | 0.0 | 0.01 | 0.17 | 0.07 | 99 | 1012.7 |
| 20260503052727 | 56 | 44 | 0.0 | 0.0 | 0.01 | 0.17 | 0.07 | 99 | 1012.6 |
| 20260503052643 | 56 | 44 | 0.0 | 0.0 | 0.01 | 0.17 | 0.07 | 99 | 1012.6 |
| 20260503051545 | 56 | 44 | 0.0 | 0.0 | 0.01 | 0.17 | 0.07 | 99 | 1012.5 |
| 20260503051358 | 56 | 44 | 0.0 | 0.0 | 0.01 | 0.17 | 0.07 | 99 | 1012.5 |